Time,TemperatureF,DewpointF,PressureIn,WindDirection,WindDirectionDegrees,WindSpeedMPH,WindSpeedGustMPH,Humidity,HourlyPrecipIn,Conditions,Clouds,dailyrainin,SoftwareType,DateUTC
2013-04-27 00:11:00,58.7,54.0,30.37,East,87,8.0,12.0,84,0.00,,,0.00,weatherlink.com 1.10,2013-04-27 04:11:00,
2013-04-27 00:26:00,58.5,54.0,30.37,ESE,120,7.0,11.0,84,0.00,,,0.00,weatherlink.com 1.10,2013-04-27 04:26:00,
2013-04-27 00:41:00,58.6,54.0,30.36,ESE,114,7.0,11.0,85,0.00,,,0.00,weatherlink.com 1.10,2013-04-27 04:41:00,
2013-04-27 00:56:00,58.8,54.0,30.36,East,93,6.0,13.0,85,0.00,,,0.00,weatherlink.com 1.10,2013-04-27 04:56:00,
2013-04-27 01:11:00,58.9,54.0,30.35,ESE,123,3.0,13.0,85,0.00,,,0.00,weatherlink.com 1.10,2013-04-27 05:11:00,
2013-04-27 01:27:00,58.9,55.0,30.34,ESE,103,8.0,13.0,86,0.00,,,0.00,weatherlink.com 1.10,2013-04-27 05:27:00,
2013-04-27 01:41:00,58.7,55.0,30.34,ESE,104,7.0,14.0,86,0.00,,,0.00,weatherlink.com 1.10,2013-04-27 05:41:00,
2013-04-27 01:56:00,58.0,54.0,30.34,ENE,60,2.0,8.0,86,0.00,,,0.00,weatherlink.com 1.10,2013-04-27 05:56:00,
2013-04-27 02:11:00,57.2,53.0,30.34,ENE,66,3.0,5.0,87,0.00,,,0.00,weatherlink.com 1.10,2013-04-27 06:11:00,
2013-04-27 02:26:00,56.4,53.0,30.34,NE,54,1.0,4.0,88,0.00,,,0.00,weatherlink.com 1.10,2013-04-27 06:26:00,
2013-04-27 02:41:00,55.9,53.0,30.34,NE,47,3.0,4.0,89,0.00,,,0.00,weatherlink.com 1.10,2013-04-27 06:41:00,
2013-04-27 02:56:00,55.1,52.0,30.33,NE,47,4.0,4.0,89,0.00,,,0.00,weatherlink.com 1.10,2013-04-27 06:56:00,
2013-04-27 03:11:00,54.4,51.0,30.34,NE,34,3.0,5.0,89,0.00,,,0.00,weatherlink.com 1.10,2013-04-27 07:11:00,
2013-04-27 03:26:00,54.2,51.0,30.34,NE,34,3.0,5.0,90,0.00,,,0.00,weatherlink.com 1.10,2013-04-27 07:26:00,
2013-04-27 03:41:00,54.1,51.0,30.34,NE,40,4.0,5.0,90,0.00,,,0.00,weatherlink.com 1.10,2013-04-27 07:41:00,
2013-04-27 03:56:00,54.1,52.0,30.35,NE,43,4.0,6.0,91,0.00,,,0.00,weatherlink.com 1.10,2013-04-27 07:56:00,
2013-04-27 04:11:00,53.8,51.0,30.35,NNE,29,6.0,7.0,91,0.00,,,0.00,weatherlink.com 1.10,2013-04-27 08:11:00,
2013-04-27 04:26:00,53.5,51.0,30.34,NE,42,3.0,7.0,91,0.00,,,0.00,weatherlink.com 1.10,2013-04-27 08:26:00,
2013-04-27 04:41:00,53.5,51.0,30.33,NE,36,2.0,8.0,91,0.00,,,0.00,weatherlink.com 1.10,2013-04-27 08:41:00,
2013-04-27 04:56:00,53.5,51.0,30.32,NE,53,6.0,7.0,91,0.00,,,0.00,weatherlink.com 1.10,2013-04-27 08:56:00,
2013-04-27 05:12:00,53.4,51.0,30.33,NE,46,3.0,7.0,91,0.00,,,0.00,weatherlink.com 1.10,2013-04-27 09:12:00,
2013-04-27 05:27:00,53.8,51.0,30.33,NE,47,4.0,5.0,91,0.00,,,0.00,weatherlink.com 1.10,2013-04-27 09:27:00,
2013-04-27 05:42:00,54.1,52.0,30.33,NE,42,4.0,7.0,91,0.00,,,0.00,weatherlink.com 1.10,2013-04-27 09:42:00,
2013-04-27 05:57:00,54.2,52.0,30.32,NNE,30,4.0,7.0,91,0.00,,,0.00,weatherlink.com 1.10,2013-04-27 09:57:00,
2013-04-27 06:12:00,54.2,52.0,30.32,NE,44,4.0,7.0,91,0.00,,,0.00,weatherlink.com 1.10,2013-04-27 10:12:00,
2013-04-27 06:27:00,54.3,52.0,30.32,NE,38,5.0,6.0,91,0.00,,,0.00,weatherlink.com 1.10,2013-04-27 10:27:00,
2013-04-27 06:42:00,54.5,52.0,30.33,NE,35,1.0,6.0,91,0.00,,,0.00,weatherlink.com 1.10,2013-04-27 10:42:00,
2013-04-27 06:57:00,54.8,52.0,30.34,NE,47,5.0,6.0,91,0.00,,,0.00,weatherlink.com 1.10,2013-04-27 10:57:00,
2013-04-27 07:12:00,55.1,53.0,30.35,NE,45,2.0,6.0,91,0.00,,,0.00,weatherlink.com 1.10,2013-04-27 11:12:00,
2013-04-27 07:27:00,56.0,53.0,30.35,NNE,23,4.0,8.0,90,0.00,,,0.00,weatherlink.com 1.10,2013-04-27 11:27:00,
2013-04-27 07:42:00,57.2,54.0,30.35,ENE,70,4.0,9.0,88,0.00,,,0.00,weatherlink.com 1.10,2013-04-27 11:42:00,
2013-04-27 07:57:00,58.2,54.0,30.35,NE,49,5.0,9.0,86,0.00,,,0.00,weatherlink.com 1.10,2013-04-27 11:57:00,
2013-04-27 08:12:00,59.1,54.0,30.35,ENE,71,7.0,8.0,82,0.00,,,0.00,weatherlink.com 1.10,2013-04-27 12:12:00,
2013-04-27 08:27:00,60.2,54.0,30.36,NE,43,6.0,10.0,81,0.00,,,0.00,weatherlink.com 1.10,2013-04-27 12:27:00,
2013-04-27 08:42:00,61.0,53.0,30.36,NE,51,5.0,8.0,75,0.00,,,0.00,weatherlink.com 1.10,2013-04-27 12:42:00,
2013-04-27 08:57:00,62.1,52.0,30.36,ENE,70,8.0,10.0,70,0.00,,,0.00,weatherlink.com 1.10,2013-04-27 12:57:00,
2013-04-27 09:12:00,62.5,51.0,30.36,NE,51,4.0,10.0,66,0.00,,,0.00,weatherlink.com 1.10,2013-04-27 13:12:00,
2013-04-27 09:27:00,63.5,49.0,30.36,NNE,15,2.0,10.0,60,0.00,,,0.00,weatherlink.com 1.10,2013-04-27 13:27:00,
2013-04-27 09:42:00,65.1,48.0,30.36,NNE,32,6.0,9.0,55,0.00,,,0.00,weatherlink.com 1.10,2013-04-27 13:42:00,
2013-04-27 09:57:00,66.2,48.0,30.36,ENE,57,3.0,8.0,52,0.00,,,0.00,weatherlink.com 1.10,2013-04-27 13:57:00,
2013-04-27 10:12:00,66.1,52.0,30.36,ESE,103,8.0,8.0,60,0.00,,,0.00,weatherlink.com 1.10,2013-04-27 14:12:00,
2013-04-27 10:27:00,64.9,51.0,30.36,ESE,119,5.0,10.0,60,0.00,,,0.00,weatherlink.com 1.10,2013-04-27 14:27:00,
2013-04-27 10:42:00,65.0,53.0,30.36,SE,134,5.0,10.0,65,0.00,,,0.00,weatherlink.com 1.10,2013-04-27 14:42:00,
2013-04-27 10:57:00,65.9,53.0,30.37,SSE,148,6.0,8.0,64,0.00,,,0.00,weatherlink.com 1.10,2013-04-27 14:57:00,
2013-04-27 11:12:00,65.8,54.0,30.36,SE,140,2.0,9.0,65,0.00,,,0.00,weatherlink.com 1.10,2013-04-27 15:12:00,
2013-04-27 11:27:00,65.9,54.0,30.36,SE,143,3.0,10.0,66,0.00,,,0.00,weatherlink.com 1.10,2013-04-27 15:27:00,
2013-04-27 11:42:00,65.0,54.0,30.36,SE,124,5.0,10.0,68,0.00,,,0.00,weatherlink.com 1.10,2013-04-27 15:42:00,
2013-04-27 11:57:00,66.3,56.0,30.35,SE,126,6.0,7.0,69,0.00,,,0.00,weatherlink.com 1.10,2013-04-27 15:57:00,
2013-04-27 12:12:00,65.9,55.0,30.35,ESE,123,5.0,8.0,69,0.00,,,0.00,weatherlink.com 1.10,2013-04-27 16:12:00,
2013-04-27 12:27:00,65.6,55.0,30.34,SSW,200,2.0,8.0,68,0.00,,,0.00,weatherlink.com 1.10,2013-04-27 16:27:00,
2013-04-27 12:42:00,66.8,54.0,30.34,SE,142,12.0,12.0,63,0.00,,,0.00,weatherlink.com 1.10,2013-04-27 16:42:00,
2013-04-27 12:57:00,65.3,55.0,30.33,SE,143,14.0,15.0,69,0.00,,,0.00,weatherlink.com 1.10,2013-04-27 16:57:00,
2013-04-27 13:12:00,65.5,53.0,30.33,ESE,109,4.0,13.0,65,0.00,,,0.00,weatherlink.com 1.10,2013-04-27 17:12:00,
2013-04-27 13:27:00,67.8,55.0,30.33,ESE,107,7.0,11.0,63,0.00,,,0.00,weatherlink.com 1.10,2013-04-27 17:27:00,
2013-04-27 13:42:00,66.5,55.0,30.32,SE,144,4.0,10.0,67,0.00,,,0.00,weatherlink.com 1.10,2013-04-27 17:42:00,
2013-04-27 13:57:00,66.8,56.0,30.32,SE,137,6.0,10.0,69,0.00,,,0.00,weatherlink.com 1.10,2013-04-27 17:57:00,
2013-04-27 14:12:00,66.5,55.0,30.32,ESE,123,7.0,11.0,67,0.00,,,0.00,weatherlink.com 1.10,2013-04-27 18:12:00,
2013-04-27 14:27:00,66.2,55.0,30.32,SE,144,6.0,12.0,67,0.00,,,0.00,weatherlink.com 1.10,2013-04-27 18:27:00,
2013-04-27 14:42:00,66.6,52.0,30.32,SE,140,7.0,11.0,60,0.00,,,0.00,weatherlink.com 1.10,2013-04-27 18:42:00,
2013-04-27 14:57:00,67.0,52.0,30.31,SE,127,7.0,10.0,59,0.00,,,0.00,weatherlink.com 1.10,2013-04-27 18:57:00,
2013-04-27 15:12:00,67.2,51.0,30.30,SE,129,7.0,11.0,56,0.00,,,0.00,weatherlink.com 1.10,2013-04-27 19:12:00,
2013-04-27 15:27:00,66.8,50.0,30.30,SSE,156,6.0,10.0,55,0.00,,,0.00,weatherlink.com 1.10,2013-04-27 19:27:00,
2013-04-27 15:42:00,67.2,54.0,30.30,SE,137,8.0,11.0,62,0.00,,,0.00,weatherlink.com 1.10,2013-04-27 19:42:00,
2013-04-27 15:57:00,66.8,55.0,30.30,SE,128,5.0,11.0,67,0.00,,,0.00,weatherlink.com 1.10,2013-04-27 19:57:00,
2013-04-27 16:12:00,66.1,56.0,30.30,SE,133,4.0,9.0,69,0.00,,,0.00,weatherlink.com 1.10,2013-04-27 20:12:00,
2013-04-27 16:27:00,65.4,54.0,30.30,SE,135,6.0,13.0,67,0.00,,,0.00,weatherlink.com 1.10,2013-04-27 20:27:00,
2013-04-27 16:42:00,65.9,54.0,30.30,SW,224,10.0,12.0,65,0.00,,,0.00,weatherlink.com 1.10,2013-04-27 20:42:00,
2013-04-27 16:57:00,65.5,53.0,30.29,ESE,113,8.0,12.0,65,0.00,,,0.00,weatherlink.com 1.10,2013-04-27 20:57:00,
2013-04-27 17:12:00,65.4,51.0,30.30,ESE,121,5.0,13.0,61,0.00,,,0.00,weatherlink.com 1.10,2013-04-27 21:12:00,
2013-04-27 17:27:00,65.5,52.0,30.30,SE,132,6.0,12.0,63,0.00,,,0.00,weatherlink.com 1.10,2013-04-27 21:27:00,
2013-04-27 17:43:00,65.5,53.0,30.29,SE,132,8.0,11.0,65,0.00,,,0.00,weatherlink.com 1.10,2013-04-27 21:43:00,
2013-04-27 17:58:00,64.4,50.0,30.29,SE,142,13.0,16.0,61,0.00,,,0.00,weatherlink.com 1.10,2013-04-27 21:58:00,
2013-04-27 18:13:00,63.8,52.0,30.29,SE,130,7.0,12.0,65,0.00,,,0.00,weatherlink.com 1.10,2013-04-27 22:13:00,
2013-04-27 18:28:00,63.8,50.0,30.29,SE,126,5.0,11.0,62,0.00,,,0.00,weatherlink.com 1.10,2013-04-27 22:28:00,
2013-04-27 18:43:00,63.7,50.0,30.29,SE,132,5.0,15.0,62,0.00,,,0.00,weatherlink.com 1.10,2013-04-27 22:43:00,
2013-04-27 18:58:00,63.4,51.0,30.29,SE,135,6.0,14.0,64,0.00,,,0.00,weatherlink.com 1.10,2013-04-27 22:58:00,
2013-04-27 19:13:00,63.3,48.0,30.29,ESE,122,10.0,14.0,58,0.00,,,0.00,weatherlink.com 1.10,2013-04-27 23:13:00,
2013-04-27 19:28:00,63.1,50.0,30.29,SE,125,8.0,13.0,62,0.00,,,0.00,weatherlink.com 1.10,2013-04-27 23:28:00,
2013-04-27 19:43:00,62.9,49.0,30.29,SE,143,8.0,11.0,61,0.00,,,0.00,weatherlink.com 1.10,2013-04-27 23:43:00,
2013-04-27 19:58:00,62.9,49.0,30.30,ESE,111,7.0,9.0,60,0.00,,,0.00,weatherlink.com 1.10,2013-04-27 23:58:00,
2013-04-27 20:13:00,62.7,49.0,30.29,SE,138,6.0,13.0,62,0.00,,,0.00,weatherlink.com 1.10,2013-04-28 00:13:00,
2013-04-27 20:28:00,62.5,50.0,30.29,SSE,147,5.0,11.0,65,0.00,,,0.00,weatherlink.com 1.10,2013-04-28 00:28:00,
2013-04-27 20:43:00,62.2,51.0,30.29,SE,134,8.0,15.0,67,0.00,,,0.00,weatherlink.com 1.10,2013-04-28 00:43:00,
2013-04-27 20:58:00,61.9,52.0,30.29,East,97,15.0,15.0,69,0.00,,,0.00,weatherlink.com 1.10,2013-04-28 00:58:00,
2013-04-27 21:13:00,61.6,51.0,30.29,SE,124,10.0,13.0,69,0.00,,,0.00,weatherlink.com 1.10,2013-04-28 01:13:00,
2013-04-27 21:28:00,61.4,52.0,30.29,SSE,165,5.0,14.0,71,0.00,,,0.00,weatherlink.com 1.10,2013-04-28 01:28:00,
2013-04-27 21:43:00,61.3,52.0,30.29,ESE,123,11.0,17.0,72,0.00,,,0.00,weatherlink.com 1.10,2013-04-28 01:43:00,
2013-04-27 21:58:00,61.1,52.0,30.29,East,94,9.0,16.0,73,0.00,,,0.00,weatherlink.com 1.10,2013-04-28 01:58:00,
2013-04-27 22:13:00,60.8,52.0,30.29,SE,130,10.0,16.0,72,0.00,,,0.00,weatherlink.com 1.10,2013-04-28 02:13:00,
2013-04-27 22:28:00,60.8,52.0,30.30,ESE,102,12.0,12.0,72,0.00,,,0.00,weatherlink.com 1.10,2013-04-28 02:28:00,
2013-04-27 22:43:00,60.6,52.0,30.30,ESE,109,9.0,13.0,72,0.00,,,0.00,weatherlink.com 1.10,2013-04-28 02:43:00,
2013-04-27 22:58:00,60.7,51.0,30.29,ESE,121,10.0,16.0,70,0.00,,,0.00,weatherlink.com 1.10,2013-04-28 02:58:00,
2013-04-27 23:13:00,60.9,50.0,30.28,ESE,118,11.0,16.0,68,0.00,,,0.00,weatherlink.com 1.10,2013-04-28 03:13:00,
2013-04-27 23:28:00,61.0,51.0,30.28,East,92,9.0,14.0,69,0.00,,,0.00,weatherlink.com 1.10,2013-04-28 03:28:00,
2013-04-27 23:43:00,60.9,51.0,30.28,SE,135,5.0,16.0,71,0.00,,,0.00,weatherlink.com 1.10,2013-04-28 03:43:00,
2013-04-27 23:58:00,60.9,51.0,30.28,ESE,112,5.0,13.0,70,0.00,,,0.00,weatherlink.com 1.10,2013-04-28 03:58:00,